Location: Songkhla
(7.2000°N, 100.6000°E)
Time: 12:25:04
(UTC+07:00)

Daily predictions for brighter satellites

Satellite Brightness Start Highest point End
(mag) Time Altitude Azimuth Time Altitude Azimuth Time Altitude Azimuth
Meteor 1-20 Rocket 4.2 18:42:06 10° S 18:47:45 77° E 18:53:16 10° N
Thor Agena Rocket 4.5 18:42:59 10° N 18:48:09 57° WNW 18:53:20 10° SSW
Okean 2 Rocket 3.3 18:45:14 10° SSE 18:49:33 50° E 18:53:53 10° NNE
Cosmos 2360 Rocket 3.3 18:50:34 10° SSE 18:54:42 21° ESE 18:58:49 10° ENE
NOSS 2-3 (C) 4.5 18:52:24 10° SW 18:56:57 56° WNW 19:01:26 10° NNE
Spelda 3.8 18:55:54 10° SW 18:58:17 24° S 19:02:48 10° ESE
Cosmos 1633 2.4 19:01:12 10° S 19:04:45 76° E 19:08:21 10° N
Cosmos 1461 3.2 19:01:43 10° NNW 19:06:17 62° ENE 19:10:55 10° SSE
Cosmos 2082 3.8 19:02:36 10° NNW 19:08:19 87° WSW 19:13:59 10° SSE
Cosmos 1602 4.1 19:05:02 10° SSE 19:08:39 40° E 19:12:15 10° NNE
FREGAT/IRIS 3.4 19:07:22 10° SE 19:10:05 31° ENE 19:12:48 10° NNE
Cosmos 1812 3.0 19:06:55 10° NNE 19:10:35 43° E 19:14:15 10° SSE
Cosmos 2227 Rocket 2.7 19:05:01 10° NNW 19:10:35 63° WSW 19:16:11 10° S
ALOS 2.2 19:09:55 10° SSE 19:14:33 68° ENE 19:19:10 10° N
Cosmos 2026 Rocket 4.1 19:09:02 10° S 19:15:17 84° W 19:21:39 10° N
Lacrosse 5 4.5 19:18:55 10° WSW 19:22:53 23° WNW 19:26:50 10° N
H-10 deb 3.9 19:22:36 10° SW 19:25:53 31° S 19:31:14 18° ESE
Cosmos 1300 Rocket 4.2 19:24:25 10° SSE 19:28:16 32° E 19:32:04 10° NNE
SJ-6B 3.0 19:27:39 14° SSE 19:30:50 51° ENE 19:34:46 10° N
Centaur AC-112 4.2 19:16:06 10° SW 19:32:34 36° S 19:35:03 24° ESE
Cosmos 1331 Rocket 4.5 19:28:50 10° SSE 19:33:28 34° ESE 19:38:07 10° NE
OAO 3 Rocket 3.4 19:30:43 10° NW 19:35:21 52° NE 19:37:13 32° E
Cosmos 1655 Rocket 4.3 19:32:23 10° S 19:38:36 70° W 19:44:50 10° N
Cosmos 1441 Rocket 3.4 19:40:56 10° NNW 19:44:39 69° W 19:48:16 11° S
Resurs 01 Rocket 2.6 19:47:39 29° NE 19:47:39 29° NE 19:50:42 10° NNE
Cosmos 407 Rocket 3.4 19:43:42 10° N 19:48:59 80° ENE 19:52:21 23° SSE
Cosmos 2151 Rocket 4.4 19:47:40 10° SSW 19:51:56 50° W 19:56:10 10° N
H-2A ROCKET BODY 2.8 19:50:43 10° NNW 19:53:25 29° NE 19:53:38 29° NE
Cosmos 1190 Rocket 4.1 19:50:03 10° NNW 19:55:19 76° WSW 19:59:26 17° S
SeaSat 1 3.3 19:51:06 10° N 19:55:50 50° WNW 20:00:36 10° SW
Cosmos 1975 Rocket 3.9 19:54:43 10° NNW 19:58:58 49° W 20:03:11 10° SSW
Cosmos 1536 2.7 19:57:01 21° S 19:59:38 86° W 20:03:42 10° N
Cosmos 2297 Rocket 4.4 19:55:19 10° NW 19:59:43 23° WSW 20:04:06 10° SSW
CZ-4C R/B 3.3 19:52:27 10° NNW 20:00:22 69° WSW 20:07:36 13° SSE
Spot 2 Rocket 4.1 20:04:20 40° NE 20:04:20 40° NE 20:08:13 10° N
Cosmos 1818 3.4 19:58:39 10° SSW 20:03:59 66° ESE 20:05:45 41° NE
Okean 1 4.3 20:07:28 10° NNW 20:11:17 46° W 20:12:31 34° SW
CZ-2D R/B 4.4 20:12:44 38° NNW 20:12:44 38° NNW 20:15:10 10° NNW
Cosmos 676 Rocket 3.9 20:07:06 10° NNW 20:12:26 87° E 20:13:06 69° SSE
Cosmos 2237 4.0 20:08:04 10° SSW 20:13:45 86° ESE 20:19:26 10° NNE
Cosmos 1140 Rocket 4.0 20:09:19 10° N 20:13:08 44° NNE 20:13:08 44° NNE
Lacrosse 5 rocket 3.9 20:13:16 10° N 20:13:20 10° N 20:13:20 10° N
Cosmos 44 Rocket 4.2 20:14:50 10° NNW 20:17:58 38° N 20:17:58 38° N
Centaur D AC-29 3.4 19:37:02 10° WSW 20:28:02 63° NNW 20:31:25 33° NE
Cosmos 1954 Rocket 4.3 20:26:54 10° NNW 20:31:31 63° NW 20:31:31 63° NW
ARIANE 5 R/B 4.2 20:10:09 10° W 20:32:15 37° SSW 20:32:59 36° S
Envisat 4.4 20:35:16 29° N 20:35:16 29° N 20:37:42 10° N
Cosmos 2360 Rocket 4.1 20:33:41 10° SW 20:38:23 27° WNW 20:43:05 10° NNW
ASC 2 Rocket 4.3 20:32:19 10° WNW 20:38:07 51° NNW 20:38:07 51° NNW
Milstar 3 4.0 20:28:48 10° WNW 20:47:09 64° NNE 20:49:17 56° ENE
Sea Lan Dem Rocket 4.2 20:46:18 10° WSW 21:32:13 - E 20:51:01 52° S
Sea Lan Dem Rocket 4.2 20:46:18 10° WSW 20:51:01 52° S 20:51:01 52° S
Sea Lan Dem Rocket 4.2 20:46:18 10° WSW 21:32:14 - E 20:51:01 52° S
FALCON 9 R/B 4.4 21:19:46 10° WNW 21:32:32 13° NE 21:34:45 10° NE
